Regional Weather Roundup
Issued by NWS

Home | Current Version | Previous Version | Graphics & Text | Print | Product List | Glossary Off
Versions: 1 2 3 4 5 6 7 8 9 10 11 12 13 14 15 16 17 18 19 20 21 22 23 24 25 26 27 28 29 30 31 32 33 34 35 36 37 38 39 40 41 42 43 44 45 46 47 48 49 50

236
ASUS43 KMPX 222201
RWRMN
WEATHER ROUNDUP FOR MINNESOTA
NATIONAL WEATHER SERVICE TWIN CITIES/CHANHASSEN MN
400 PM CST SUN JAN 22 2017


NOTE: "FAIR" INDICATES FEW OR NO CLOUDS BELOW 12,000 FEET WITH NO
SIGNIFICANT WEATHER AND/OR OBSTRUCTIONS TO VISIBILITY. N/A MEANS
CURRENT SKY AND/OR WEATHER CONDITIONS ARE NOT AVAILABLE.

MNZ060>063-068>070-222300-
   Twin Cities Metro

CITY           SKY/WX    TMP DP  RH WIND       PRES   REMARKS
TWIN CITIES    CLOUDY    40  35  83 W6        29.73R
ST PAUL        CLOUDY    40  37  89 NW8       29.73S
CRYSTAL        CLOUDY    39  34  82 W8        29.72R
BLAINE         CLOUDY    41  39  93 NW6       29.72R
LAKEVILLE        N/A     36  36 100 W6        29.73R
EDEN PRAIRIE   CLOUDY    39  35  86 NW8       29.72R
SOUTH ST PAUL  CLOUDY    40  37  91 W3        29.72S
LAKE ELMO      CLOUDY    37  36  93 W5        29.72S
$$
MNZ001>005-007-008-013>017-022>024-027-028-222300-
   Northwest Minnesota

CITY           SKY/WX    TMP DP  RH WIND       PRES   REMARKS
BEMIDJI        CLOUDY    35  34  96 W3        29.71R
HALLOCK        SNOW      34  34 100 W3        29.73R VSB<1/4
ROSEAU         HAZE      36  30  80 CALM      29.72S VSB<1/4
WARROAD        CLOUDY    36  32  87 CALM      29.72S
THIEF RVR FALL CLOUDY    32  31  96 W6        29.74R FOG     WCI  26
CROOKSTON      CLOUDY    32  32 100 W6        29.75R FOG     WCI  26
FOSSTON        FOG       30  30 100 W6        29.74R VSB<1/4 WCI  24
DETROIT LAKES  FOG       32  32 100 NW7       29.75R VSB 1/2 WCI  26
MOORHEAD       CLOUDY    34  30  86 W3        29.77R FOG
PARK RAPIDS    CLOUDY    36  32  85 W8        29.71R FOG
MAHNOMEN       FOG       32  32 100 W7        29.74R VSB 1/4 WCI  25
$$
MNZ006-009>011-018-025>026-222300-
   North Central Minnesota

CITY           SKY/WX    TMP DP  RH WIND       PRES   REMARKS
BAUDETTE       CLOUDY    35  33  92 CALM      29.71R
FLAG ISLAND    CLOUDY    34  32  93 S3        29.71S
INTL FALLS     CLOUDY    37  34  89 N5        29.70R
WASKISH        CLOUDY    34  34 100 W3        29.72R
BIG FORK       MIX PCPN  37  36  93 CALM      29.70R
LONGVILLE      CLOUDY    36  34  93 CALM      29.71R
GRAND RAPIDS   CLOUDY    36  35  96 W8        29.72R FOG
CRANE LAKE     CLOUDY    34  34 100 CALM      29.72R
ORR            LGT RAIN  34  30  86 CALM      29.67S
COOK           LGT RAIN  34  34 100 CALM      29.70R
WALKER         CLOUDY    35  34  97 NW3       29.71R FOG
$$
MNZ012-019>021-037-222300-
   Northeast Minnesota

CITY           SKY/WX    TMP DP  RH WIND       PRES   REMARKS
DULUTH         CLOUDY    36  34  92 NW6       29.67R
ELY            CLOUDY    36  36 100 CALM      29.68R
HIBBING        CLOUDY    35  34  96 N5        29.68R WCI  31
EVELETH        CLOUDY    37  36  93 NW3       29.69S
DULUTH HARBOR  CLOUDY    37  36  93 CALM      29.71R
TWO HARBORS    CLOUDY    39  36  87 W3        29.67R
SILVER BAY     FOG       37  36  93 CALM      29.67R VSB 1/4
GRAND MARAIS     N/A     38  36  92 CALM      29.69R
G MARAIS ARPRT FLURRIES  34  28  80 NW3       29.66R
$$
MNZ029>031-032-039>041-046>048-054>057-064-222300-
   West Central Minnesota

CITY           SKY/WX    TMP DP  RH WIND       PRES   REMARKS
FERGUS FALLS   CLOUDY    32  32 100 NW6       29.80R FOG     WCI  26
WHEATON        CLOUDY    37  37 100 W6        29.80R FOG
MORRIS         PTSUNNY   32  30  93 NW9       29.76S FOG     WCI  24
ALEXANDRIA     FOG       32  32 100 W13       29.75R VSB 1/4 WCI  22
ELBOW LAKE     CLOUDY    31  31 100 NW8       29.77R FOG     WCI  24
WADENA         FOG       32  32 100 W7        29.72S VSB 1/2 WCI  26
GLENWOOD       FOG       32  32 100 W8        29.75S VSB<1/4 WCI  25
APPLETON       CLOUDY    34  30  86 W8        29.78S FOG     WCI  27
ORTONVILLE     CLOUDY    34  30  86 CALM      29.78S
MADISON        CLOUDY    34  34 100 NW9       29.79S WCI  26
WILLMAR        CLOUDY    34  34 100 W10       29.78R FOG     WCI  26
$$
MNZ033>034-036-042>043-049>051-058-059-222300-
   Central Minnesota

CITY           SKY/WX    TMP DP  RH WIND       PRES   REMARKS
ST CLOUD       CLOUDY    37  37 100 NW5       29.72S
SAUK CENTRE    CLOUDY    32  32 100 W8        29.74S FOG     WCI  25
PAYNESVILLE    CLOUDY    33  33 100 W9        29.76R FOG     WCI  25
AITKIN         CLOUDY    39  34  81 CALM      29.69S
PINE RIVER     CLOUDY    36  36 100 NW3       29.75R
BRAINERD       CLOUDY    36  34  92 W5        29.71S
STAPLES        FOG       34  34 100 W9        29.72S VSB 3/4 WCI  26
LONG PRAIRIE   FOG       32  32 100 SW7       29.73R VSB 1   WCI  26
LITTLE FALLS   CLOUDY    37  34  87 W6        29.73R
LITCHFIELD     FOG       36  36 100 W10G16    29.76R VSB 3/4
BUFFALO        CLOUDY    37  35  90 W5        29.74R
MAPLE LAKE     CLOUDY    38  37  94 W3        29.74R
HUTCHINSON     FOG       35  35  99 W12       29.76R VSB 1/2 WCI  27
$$
MNZ037-044-045-052-053-222300-
   East Central Minnesota

CITY           SKY/WX    TMP DP  RH WIND       PRES   REMARKS
PRINCETON      CLOUDY    39  36  87 W6        29.73R
MORA           CLOUDY    36  34  93 W5        29.72S
CAMBRIDGE      CLOUDY    39  37  93 W3        29.71R
RUSH CITY      CLOUDY    37  36  93 CALM      29.71S
MOOSE LAKE     CLOUDY    37  34  87 NW3       29.69R FOG
HINCKLEY       CLOUDY    37  36  93 NW3       29.71S
CLOQUET        CLOUDY    36  34  93 NW3       29.69R
MCGREGOR       CLOUDY    36  36 100 W3        29.70S
$$
MNZ071>073-080-081-089-090-097-098-222300-
   Southwest Minnesota

CITY           SKY/WX    TMP DP  RH WIND       PRES   REMARKS
MONTEVIDEO     CLOUDY    34  34 100 NW8       29.80R FOG     WCI  27
GRANITE FALLS  CLOUDY    34  33  99 W9        29.81R FOG     WCI  26
CANBY          CLOUDY    33  31  94 NW9G17    29.80S WCI  25
MARSHALL       CLOUDY    32  29  88 W12       29.79R WCI  23
REDWOOD FALLS  CLOUDY    34  31  88 NW10      29.77S WCI  26
OLIVIA         CLOUDY    34  34 100 NW13      29.77R FOG     WCI  25
PIPESTONE      FOG       28  28 100 NW12      29.78R VSB 1   WCI  18
WINDOM         CLOUDY    36  36 100 NW9       29.76S FOG
WORTHINGTON    CLOUDY    32  31  96 NW14      29.78R FOG     WCI  22
JACKSON        CLOUDY    34  34 100 NW13      29.76S FOG     WCI  25
TRACY          CLOUDY    33  32  96 NW10      29.78R FOG     WCI  25
SLAYTON        CLOUDY    31  31 100 NW12      29.78R FOG     WCI  22
$$
MNZ065>067-074>077-082>085-091>093-222300-
   South Central Minnesota

CITY           SKY/WX    TMP DP  RH WIND       PRES   REMARKS
MANKATO        CLOUDY    36  36 100 NW6       29.75R FOG
NEW ULM        CLOUDY    34  34 100 NW10      29.77R FOG     WCI  26
ST JAMES       FOG       36  36 100 NW10      29.78R VSB 3/4
FAIRMONT       CLOUDY    37  35  92 NW14      29.75S
GLENCOE        CLOUDY    37  37 100 W8        29.74R FOG
OWATONNA       CLOUDY    36  34  93 NW5       29.74R FOG
WASECA         CLOUDY    36  36 100 W6        29.75R FOG
ALBERT LEA     FOG       36  36 100 NW5       29.73R VSB 1
$$
MNZ078>079-086>088-094>096-222300-
   Southeast Minnesota

CITY           SKY/WX    TMP DP  RH WIND       PRES   REMARKS
ROCHESTER      CLOUDY    34  34 100 NW7       29.71S FOG     WCI  28
RED WING       CLOUDY    39  36  87 NW3       29.72R
STANTON        CLOUDY    37  36  95 W3        29.72R
DODGE CENTER   MOCLDY    36  34  93 CALM      29.71R FOG
WINONA         CLOUDY    37  36  93 NW6       29.72R
AUSTIN         CLOUDY    36  34  93 NW5       29.73R FOG
PRESTON        CLOUDY    34  33  96 NW8       29.71R FOG     WCI  27
$$
ABBREVIATIONS USED IN REMARKS
   TC - TEMPERATURES IN CELSIUS
  WCI - WIND CHILL INDEX
   HX - HEAT INDEX
  VSB - VISIBILITY
$$




USA.gov is the U.S. government's official web portal to all federal, state and local government web resources and services.